User: anonymous   Login
Location: Newark
(31.5350°N, 35.0986°E)
Time: 08:55:25
(UTC+00:00)
Language:

Transit 4A - Orbit

View from above orbital plane
View from above orbital plane
View from above satellite
View from above satellite

Ground track
Ground track

The orbit data is extracted from the following two-line orbital elements,

1   116U 61015A   20222.86556263 -.00000087  00000-0 -78858-5 0  9998
2   116  66.8097  77.6478 0079111 326.9791  32.6361 13.91773370999730
Epoch (UTC): 09 August 2020 20:46:24
Eccentricity: 0.0079111
inclination: 66.8097°
perigee height: 864 km
apogee height: 980 km
right ascension of ascending node: 77.6478°
argument of perigee: 326.9791°
revolutions per day: 13.91773370
mean anomaly at epoch: 32.6361°
orbit number at epoch: 99973

The dashed part of the orbit path shows where the satellite is in the earth's shadow,  

DLR